Location: Catacaguana
(10.4120°N, 66.7591°W)
Time: 03:49:32
(UTC+00:00)

FENGYUN 1C DEB - Visible Passes

Search period start: 28 January 2023 00:00
Search period end: 07 February 2023 00:00
Orbit: 817 x 858 km, 98.7° (Epoch: 27 January)

Date Brightness Start Highest point End Pass type
(mag) Time Alt. Az. Time Alt. Az. Time Alt. Az.
28 Jan ? 23:01:37 10° SE 23:06:32 38° ENE 23:11:28 10° N visible
29 Jan ? 00:44:04 10° SW 00:46:48 14° W 00:49:33 10° WNW visible
29 Jan ? 22:46:38 10° SE 22:50:58 25° ENE 22:55:18 10° NNE visible
30 Jan ? 00:27:07 10° SSW 00:31:09 22° W 00:35:13 10° NW visible
31 Jan ? 00:10:45 10° SSW 00:15:30 33° W 00:20:19 10° NW visible
31 Jan ? 23:54:42 10° S 23:59:52 50° WSW 00:05:05 10° NNW visible
01 Feb ? 23:38:54 10° S 23:44:15 78° WSW 23:49:39 10° NNW visible
02 Feb ? 23:23:18 10° SSE 23:28:38 70° ENE 23:34:00 10° N visible
03 Feb ? 23:07:55 10° SSE 23:13:02 46° ENE 23:18:11 10° N visible
04 Feb ? 00:51:35 10° WSW 00:53:20 12° W 00:55:06 10° W visible
04 Feb ? 22:52:47 10° SE 22:57:26 30° ENE 23:02:07 10° NNE visible
05 Feb ? 00:34:04 10° SW 00:37:40 18° W 00:41:18 10° WNW visible
06 Feb ? 00:17:29 10° SSW 00:22:00 28° W 00:26:34 10° NW visible
